OK1HRA-8 Weather Reports


time (UTC)temp
C
wind
direction
speed
KPH
gust
KPH
rain 1hr
cm
rain 24hr
cm
rain mn
cm
humidity
%
barometer
mb
20260507024018 9 225 24.1 33.8 0.00 0.00 0.00 9 994.2
20260507023511 9 225 17.7 27.4 0.00 0.00 0.00 9 996.2
20260507023004 9 225 19.3 27.4 0.00 0.00 0.00 9 993.9
20260507022457 9 225 17.7 27.4 0.00 0.00 0.00 9 996.5
20260507021950 9 225 22.5 35.4 0.00 0.00 0.00 9 994.7
20260507021443 9 225 24.1 32.2 0.00 0.00 0.00 9 993.8
20260507020936 9 225 19.3 27.4 0.00 0.00 0.00 9 993.8
20260507020429 9 225 19.3 27.4 0.00 0.00 0.00 9 994.5
20260507015922 9 225 16.1 25.7 0.00 0.00 0.00 9 994.8
20260507015414 9 225 12.9 20.9 0.00 0.00 0.00 9 998.2
20260507014907 10 -1 16.1 25.7 0.00 0.00 0.00 10 995.7
20260507014400 10 -1 19.3 30.6 0.00 0.00 0.00 10 996.1
20260507013853 10 225 19.3 30.6 0.00 0.00 0.00 9 994.8
20260507013346 10 225 20.9 29.0 0.00 0.00 0.00 9 994.8
20260507012838 10 225 17.7 27.4 0.00 0.00 0.00 9 993.8
20260507012331 10 225 17.7 24.1 0.00 0.00 0.00 9 994.5
20260507011824 10 225 16.1 24.1 0.00 0.00 0.00 9 993.9
20260507011316 10 225 12.9 20.9 0.00 0.00 0.00 9 995.0
20260507010809 10 225 12.9 20.9 0.00 0.00 0.00 9 996.3
20260507010302 10 270 14.5 20.9 0.00 0.00 0.00 10 995.5
20260507005755 10 225 17.7 27.4 0.00 0.00 0.00 10 995.1
20260507005248 10 225 19.3 27.4 0.00 0.00 0.00 10 994.6
20260507004741 10 225 19.3 29.0 0.00 0.00 0.00 10 996.7
20260507004234 10 -1 20.9 33.8 0.00 0.00 0.00 10 996.0
20260507003727 10 -1 22.5 33.8 0.00 0.00 0.00 10 995.7
20260507003220 10 -1 24.1 35.4 0.00 0.00 0.00 9 996.0
20260507002712 10 -1 19.3 30.6 0.00 0.00 0.00 10 994.3
20260507002206 10 -1 17.7 24.1 0.00 0.00 0.00 9 995.6
20260507001657 10 -1 17.7 27.4 0.00 0.00 0.00 9 995.1
20260507001150 10 225 12.9 19.3 0.00 0.00 0.00 9 997.0
20260507000643 10 -1 12.9 17.7 0.00 0.00 0.00 10 994.5
20260507000136 10 225 12.9 19.3 0.00 0.00 0.00 9 994.2
20260506235629 10 225 9.7 14.5 0.00 0.00 0.30 8 995.2
20260506235121 10 225 11.3 17.7 0.00 0.00 0.30 9 996.5
20260506234614 10 225 11.3 17.7 0.00 0.00 0.30 9 997.1
20260506234107 10 -1 11.3 17.7 0.00 0.00 0.30 9 996.8
20260506233600 10 225 11.3 16.1 0.00 0.00 0.30 9 995.6
20260506233053 10 -1 11.3 19.3 0.00 0.00 0.30 9 995.4
20260506232546 10 -1 9.7 14.5 0.00 0.00 0.30 9 995.4
20260506232038 10 -1 9.7 16.1 0.00 0.00 0.30 9 995.3
20260506231531 10 -1 9.7 16.1 0.00 0.00 0.30 10 993.8
20260506231024 10 -1 11.3 16.1 0.00 0.00 0.30 9 995.1
20260506230517 11 -1 12.9 19.3 0.00 0.00 0.30 9 993.2
20260506230009 11 -1 9.7 14.5 0.00 0.00 0.30 8 996.4
20260506225501 11 -1 11.3 20.9 0.00 0.00 0.30 9 997.5
20260506224954 11 -1 11.3 20.9 0.00 0.00 0.30 10 995.6
20260506224447 11 -1 12.9 19.3 0.00 0.00 0.30 9 996.2
20260506223939 11 -1 14.5 22.5 0.00 0.00 0.30 10 998.1
20260506223432 11 -1 11.3 17.7 0.00 0.00 0.30 10 997.7
20260506222925 11 -1 0.0 0.0 0.00 0.00 0.30 10 996.4
20260506222418 11 -1 0.0 0.0 0.00 0.00 0.30 9 995.3
20260506221911 11 -1 0.0 0.0 0.00 0.00 0.30 9 996.6
20260506221404 11 -1 0.0 0.0 0.00 0.00 0.30 9 995.8
20260506220856 11 -1 0.0 0.0 0.00 0.00 0.30 9 996.2
20260506220349 11 -1 0.0 0.0 0.00 0.00 0.30 9 993.9
20260506215842 11 225 0.0 0.0 0.00 0.00 0.30 8 996.4
20260506215335 11 -1 0.0 0.0 0.00 0.00 0.30 9 996.8
20260506214828 11 -1 0.0 0.0 0.00 0.00 0.30 9 995.4
20260506214321 11 -1 0.0 0.0 0.00 0.00 0.30 8 996.0
20260506213813 11 -1 9.7 12.9 0.00 0.00 0.30 9 995.5
20260506213306 11 -1 8.0 12.9 0.00 0.00 0.28 10 996.9
20260506212759 11 -1 6.4 11.3 0.00 0.00 0.28 9 996.8
20260506212251 11 -1 11.3 20.9 0.00 0.00 0.28 9 995.2
20260506211743 11 -1 11.3 16.1 0.00 0.00 0.25 8 994.8
20260506211235 12 -1 9.7 14.5 0.00 0.00 0.25 8 995.1
20260506210727 12 -1 9.7 16.1 0.00 0.00 0.25 8 996.2
20260506210220 12 -1 11.3 17.7 0.00 0.00 0.25 8 996.8
20260506205712 12 -1 12.9 20.9 0.00 0.00 0.25 9 995.8
20260506205205 12 -1 19.3 25.7 0.00 0.00 0.25 9 995.9
20260506204658 12 -1 17.7 24.1 0.00 0.00 0.25 9 996.6
20260506204151 12 -1 0.0 0.0 0.00 0.00 0.25 9 995.4
20260506203644 12 -1 0.0 0.0 0.00 0.00 0.25 8 994.0
20260506203136 12 -1 0.0 0.0 0.00 0.00 0.25 9 995.5
20260506202629 12 -1 8.0 14.5 0.00 0.00 0.25 9 994.8
20260506202121 12 -1 12.9 27.4 0.00 0.00 0.25 8 994.0
20260506201613 12 -1 19.3 29.0 0.00 0.00 0.25 8 992.3
20260506201106 12 -1 16.1 24.1 0.00 0.00 0.23 8 993.0
20260506200558 12 -1 14.5 22.5 0.00 0.00 0.23 8 994.6
20260506200050 12 -1 14.5 24.1 0.00 0.00 0.23 8 994.2
20260506195542 12 -1 11.3 17.7 0.00 0.00 0.23 8 994.9
20260506195035 12 -1 14.5 24.1 0.00 0.00 0.23 8 995.4
20260506194528 12 -1 17.7 27.4 0.00 0.00 0.23 8 995.2
20260506194021 12 -1 11.3 16.1 0.00 0.00 0.23 7 993.8
20260506193513 13 -1 0.0 0.0 0.00 0.00 0.20 7 995.1
20260506193005 13 -1 0.0 0.0 0.00 0.00 0.20 8 994.4
20260506192458 12 -1 0.0 0.0 0.00 0.00 0.20 8 994.8
20260506191950 13 -1 0.0 0.0 0.00 0.00 0.20 8 994.7
20260506191442 13 0 0.0 0.0 0.00 0.00 0.20 8 994.1
20260506190934 13 -1 0.0 0.0 0.00 0.00 0.20 8 993.3
20260506190427 13 -1 4.8 8.0 0.00 0.00 0.20 8 992.7
20260506185920 13 0 0.0 0.0 0.00 0.00 0.20 8 991.6
20260506185413 13 -1 0.0 0.0 0.00 0.00 0.20 8 993.7
20260506184904 13 -1 0.0 0.0 0.00 0.00 0.20 9 993.7
20260506184356 13 -1 4.8 9.7 0.00 0.00 0.20 9 993.6
20260506183849 13 -1 8.0 11.3 0.00 0.00 0.20 9 993.5
20260506183342 13 -1 8.0 14.5 0.00 0.00 0.20 9 993.2
20260506182834 13 -1 9.7 16.1 0.00 0.00 0.20 9 992.4
20260506182326 13 -1 12.9 25.7 0.00 0.00 0.20 9 992.5
20260506181819 13 -1 11.3 24.1 0.00 0.00 0.20 8 991.6
20260506181312 13 -1 16.1 24.1 0.00 0.00 0.20 8 991.2
20260506180803 14 -1 11.3 20.9 0.00 0.00 0.20 8 991.1
20260506180256 14 -1 14.5 20.9 0.00 0.00 0.20 8 991.5
20260506175749 14 -1 12.9 20.9 0.00 0.00 0.20 8 990.7
20260506175242 14 -1 6.4 12.9 0.00 0.00 0.20 8 991.2
20260506174735 14 -1 8.0 14.5 0.00 0.00 0.20 8 992.2
20260506174227 13 -1 9.7 19.3 0.00 0.00 0.20 8 993.7
20260506173720 13 -1 0.0 0.0 0.00 0.00 0.20 9 993.6
20260506173212 13 -1 6.4 11.3 0.00 0.00 0.20 8 994.7
20260506172704 13 -1 9.7 12.9 0.00 0.00 0.20 9 994.8
20260506172157 14 -1 0.0 0.0 0.00 0.00 0.20 9 993.9
20260506171649 14 -1 0.0 0.0 0.00 0.00 0.20 9 993.3
20260506171141 14 -1 6.4 12.9 0.00 0.00 0.20 8 993.2
20260506170634 14 -1 8.0 12.9 0.00 0.00 0.20 8 993.0
20260506170127 14 -1 8.0 14.5 0.00 0.00 0.20 8 993.1
20260506165620 14 -1 9.7 16.1 0.00 0.00 0.20 8 993.1
20260506165112 14 -1 8.0 14.5 0.00 0.00 0.20 8 992.6
20260506164605 14 -1 9.7 14.5 0.00 0.00 0.20 7 993.1
20260506164057 14 -1 8.0 12.9 0.00 0.00 0.20 8 992.4
20260506163549 15 -1 9.7 12.9 0.00 0.00 0.20 8 991.9
20260506163042 15 -1 9.7 16.1 0.00 0.00 0.20 8 991.9
20260506162535 14 -1 9.7 17.7 0.00 0.00 0.20 8 993.6
20260506162028 15 -1 16.1 20.9 0.00 0.00 0.20 8 989.8
20260506161521 14 -1 14.5 20.9 0.00 0.00 0.20 6 987.0
20260506161014 15 -1 9.7 17.7 0.00 0.00 0.18 8 992.9
20260506160506 15 -1 11.3 16.1 0.00 0.00 0.18 7 995.3
20260506155958 15 -1 0.0 0.0 0.00 0.00 0.18 9 998.9
20260506155451 15 -1 8.0 12.9 0.00 0.00 0.18 9 995.7
20260506154944 15 -1 6.4 9.7 0.00 0.00 0.18 9 996.1
20260506154437 15 -1 8.0 12.9 0.00 0.00 0.18 9 995.8
20260506153930 15 -1 9.7 17.7 0.00 0.00 0.18 9 995.2
20260506153423 15 -1 8.0 16.1 0.00 0.00 0.18 8 995.1
20260506152916 15 -1 9.7 14.5 0.00 0.00 0.18 9 996.5
20260506152409 15 -1 9.7 16.1 0.00 0.00 0.18 8 995.9
20260506151901 15 -1 0.0 0.0 0.00 0.00 0.18 9 997.3
20260506151353 15 -1 8.0 12.9 0.00 0.00 0.18 9 996.7
20260506150846 15 -1 9.7 14.5 0.00 0.00 0.18 9 994.4
20260506150339 15 -1 8.0 12.9 0.00 0.00 0.18 9 997.5
20260506145831 15 -1 9.7 14.5 0.00 0.00 0.18 9 996.4
20260506145323 15 -1 12.9 19.3 0.00 0.00 0.18 9 997.0
20260506144816 14 -1 19.3 41.8 0.00 0.00 0.18 9 989.2
20260506144308 14 -1 27.4 41.8 0.00 0.00 0.10 7 991.6
20260506143800 16 -1 12.9 19.3 0.00 0.00 0.03 5 992.4
20260506143253 17 -1 0.0 0.0 0.00 0.00 0.00 4 992.2
20260506142746 17 -1 0.0 0.0 0.00 0.00 0.00 5 992.7
20260506142239 17 -1 0.0 0.0 0.00 0.00 0.00 5 991.0
20260506141731 17 -1 0.0 0.0 0.00 0.00 0.00 5 990.7
20260506141224 17 -1 0.0 0.0 0.00 0.00 0.00 5 990.0
20260506140717 17 180 0.0 0.0 0.00 0.00 0.00 4 991.9
20260506140210 17 135 0.0 0.0 0.00 0.00 0.00 4 992.7
20260506135702 17 135 0.0 0.0 0.00 0.00 0.00 4 993.3
20260506135155 17 90 6.4 8.0 0.00 0.00 0.00 5 990.3
20260506134647 17 90 0.0 0.0 0.00 0.00 0.00 5 991.7
20260506134140 18 90 0.0 0.0 0.00 0.00 0.00 4 993.8
20260506133633 18 90 0.0 0.0 0.00 0.00 0.00 4 993.5
20260506133126 18 90 0.0 0.0 0.00 0.00 0.00 4 994.2
20260506132619 17 270 4.8 8.0 0.00 0.00 0.00 5 992.9
20260506132112 17 315 6.4 8.0 0.00 0.00 0.00 5 991.0
20260506131604 17 315 9.7 16.1 0.00 0.00 0.00 5 990.8
20260506131057 17 315 8.0 16.1 0.00 0.00 0.00 5 991.2
20260506130549 17 315 8.0 11.3 0.00 0.00 0.00 5 990.5
20260506130041 17 315 9.7 16.1 0.00 0.00 0.00 5 990.5
20260506125534 17 315 9.7 14.5 0.00 0.00 0.00 5 990.3
20260506125026 17 270 9.7 14.5 0.00 0.00 0.00 5 990.9
20260506124518 17 270 11.3 17.7 0.00 0.00 0.00 5 990.8
20260506124010 17 -1 11.3 20.9 0.00 0.00 0.00 5 991.8
20260506123503 17 225 9.7 14.5 0.00 0.00 0.00 5 991.3
20260506122956 17 -1 12.9 20.9 0.00 0.00 0.00 5 989.8
20260506122448 17 -1 16.1 22.5 0.00 0.00 0.00 5 989.4
20260506121940 17 270 14.5 24.1 0.00 0.00 0.00 5 988.7
20260506121433 17 270 6.4 9.7 0.00 0.00 0.00 5 990.3
20260506120926 17 90 9.7 17.7 0.00 0.00 0.00 5 993.3
20260506120420 17 225 16.1 25.7 0.00 0.00 0.00 5 992.5
20260506115912 17 -1 17.7 29.0 0.00 0.00 0.00 5 993.2
20260506115405 17 -1 14.5 20.9 0.00 0.00 0.00 5 991.4
20260506114858 17 270 17.7 24.1 0.00 0.00 0.00 5 989.5
20260506114350 17 -1 14.5 22.5 0.00 0.00 0.00 5 991.4
20260506113843 17 315 17.7 27.4 0.00 0.00 0.00 5 993.0
20260506113336 17 225 16.1 29.0 0.00 0.00 0.00 5 992.7
20260506112829 17 225 12.9 22.5 0.00 0.00 0.00 5 993.8
20260506112322 16 -1 19.3 27.4 0.00 0.00 0.00 5 990.9
20260506111814 16 225 17.7 25.7 0.00 0.00 0.00 5 991.9
20260506111306 16 -1 20.9 37.0 0.00 0.00 0.00 5 992.3
20260506110759 16 -1 16.1 33.8 0.00 0.00 0.00 5 992.2
20260506110252 16 -1 19.3 32.2 0.00 0.00 0.00 6 990.9
20260506105745 16 225 19.3 32.2 0.00 0.00 0.00 5 991.3
20260506105237 16 225 19.3 33.8 0.00 0.00 0.00 6 992.6
20260506104730 16 225 19.3 37.0 0.00 0.00 0.00 5 992.5
20260506104223 16 -1 19.3 30.6 0.00 0.00 0.00 7 991.5
20260506103715 16 225 22.5 30.6 0.00 0.00 0.00 6 990.9
20260506103208 16 225 16.1 25.7 0.00 0.00 0.00 6 993.8
20260506102701 15 -1 22.5 35.4 0.00 0.00 0.00 6 990.2
20260506102153 15 225 20.9 38.6 0.00 0.00 0.00 6 990.4
20260506101646 15 225 19.3 32.2 0.00 0.00 0.00 6 993.2
20260506101139 15 -1 20.9 33.8 0.00 0.00 0.00 6 992.5
20260506100632 15 225 14.5 24.1 0.00 0.00 0.00 6 994.7
20260506100124 15 270 17.7 30.6 0.00 0.00 0.00 6 992.0
20260506095617 15 -1 19.3 32.2 0.00 0.00 0.00 6 992.3
20260506095110 15 225 24.1 33.8 0.00 0.00 0.00 6 992.6
20260506094603 16 -1 19.3 32.2 0.00 0.00 0.00 6 992.9
20260506094055 15 225 19.3 32.2 0.00 0.00 0.00 6 993.4
20260506093547 15 270 17.7 33.8 0.00 0.00 0.00 6 991.5
20260506093040 15 -1 19.3 32.2 0.00 0.00 0.00 7 990.5
20260506092533 15 225 19.3 27.4 0.00 0.00 0.00 6 990.5
20260506092026 15 270 20.9 32.2 0.00 0.00 0.00 6 991.4
20260506091518 15 225 25.7 33.8 0.00 0.00 0.00 6 991.8
20260506091010 15 -1 20.9 33.8 0.00 0.00 0.00 6 991.2
20260506090502 15 180 24.1 37.0 0.00 0.00 0.00 6 991.2
20260506085955 15 225 19.3 30.6 0.00 0.00 0.00 7 992.1
20260506085448 14 225 22.5 33.8 0.00 0.00 0.00 6 992.2
20260506084941 14 -1 19.3 30.6 0.00 0.00 0.00 6 993.4
20260506084433 14 -1 22.5 33.8 0.00 0.00 0.00 7 989.9
20260506083925 14 180 19.3 37.0 0.00 0.00 0.00 7 993.6
20260506083418 13 -1 22.5 30.6 0.00 0.00 0.00 7 992.3
20260506082910 13 225 16.1 25.7 0.00 0.00 0.00 7 994.5
20260506082402 13 225 19.3 29.0 0.00 0.00 0.00 8 991.5
20260506081855 13 -1 16.1 25.7 0.00 0.00 0.00 7 995.8
20260506081348 13 -1 20.9 32.2 0.00 0.00 0.00 7 993.5
20260506080841 12 -1 16.1 29.0 0.00 0.00 0.00 7 993.9
20260506080333 13 225 19.3 33.8 0.00 0.00 0.00 8 993.2
20260506073246 12 -1 24.1 37.0 0.00 0.00 0.00 8 992.9
20260506072739 12 225 24.1 35.4 0.00 0.00 0.00 8 994.3
20260506072231 12 -1 20.9 37.0 0.00 0.00 0.00 8 994.9
20260506071724 12 -1 22.5 38.6 0.00 0.00 0.00 9 993.8
20260506071217 12 225 19.3 32.2 0.00 0.00 0.00 9 994.5
20260506070709 12 -1 24.1 38.6 0.00 0.00 0.00 9 994.4
20260506070201 12 -1 20.9 30.6 0.00 0.00 0.00 8 995.9
20260506062101 11 225 19.3 25.7 0.00 0.00 0.00 8 994.6
20260506061554 11 225 16.1 24.1 0.00 0.00 0.00 8 996.5
20260506061046 11 -1 16.1 25.7 0.00 0.00 0.00 9 995.9
20260506060539 11 -1 17.7 27.4 0.00 0.00 0.00 9 995.0
20260506050918 11 180 16.1 22.5 0.00 0.00 0.00 8 993.2
20260506050410 10 225 16.1 24.1 0.00 0.00 0.00 8 993.6
20260506044849 10 225 16.1 29.0 0.00 0.00 0.00 8 993.1
20260506044342 10 225 14.5 24.1 0.00 0.00 0.00 9 994.0
20260506043834 10 225 12.9 22.5 0.00 0.00 0.00 9 995.1
20260506043326 10 225 14.5 22.5 0.00 0.00 0.00 9 994.4
20260506042818 10 270 12.9 20.9 0.00 0.00 0.00 9 993.7
20260506042311 10 225 14.5 24.1 0.00 0.00 0.00 9 995.1
20260506041804 10 225 14.5 22.5 0.00 0.00 0.00 9 992.0
20260506041256 10 225 16.1 24.1 0.00 0.00 0.00 8 993.2
20260506040748 10 225 16.1 25.7 0.00 0.00 0.00 8 993.4
20260506040241 10 -1 16.1 22.5 0.00 0.00 0.00 9 992.8
20260506035733 10 225 19.3 32.2 0.00 0.00 0.00 9 994.7
20260506035226 10 225 14.5 22.5 0.00 0.00 0.00 9 993.7
20260506034719 10 225 17.7 27.4 0.00 0.00 0.00 10 993.3
20260506034212 10 -1 17.7 25.7 0.00 0.00 0.00 9 993.5
20260506033705 10 270 17.7 24.1 0.00 0.00 0.00 10 993.8
20260506033158 10 225 16.1 27.4 0.00 0.00 0.00 10 994.8
20260506032651 10 225 16.1 24.1 0.00 0.00 0.00 10 994.5
20260506032144 10 270 17.7 29.0 0.00 0.00 0.00 10 994.4
20260506031637 10 225 16.1 24.1 0.00 0.00 0.00 10 995.7
20260506031130 10 270 19.3 29.0 0.00 0.00 0.00 10 995.1
20260506030623 10 270 19.3 29.0 0.00 0.00 0.00 10 994.6
20260506030116 10 225 19.3 29.0 0.00 0.00 0.00 10 994.9
20260506025609 10 -1 17.7 25.7 0.00 0.00 0.00 10 995.0
20260506025102 10 -1 17.7 29.0 0.00 0.00 0.00 10 995.0
20260506024555 10 -1 16.1 25.7 0.00 0.00 0.00 10 996.3